DW1384 Weather Reports


time (UTC)temp
C
wind
direction
speed
KPH
gust
KPH
rain 1hr
cm
rain 24hr
cm
rain mn
cm
humidity
%
barometer
mb
20260504070319 13 305 0.0 0.0 0.00 0.00 0.00 80 1013.8
20260504050442 9 126 0.0 0.0 0.00 0.00 0.00 88 1012.9
20260504045935 9 126 0.0 0.0 0.00 0.00 0.00 88 1012.9
20260504045431 8 126 0.0 0.0 0.00 0.00 0.00 88 1012.9
20260504044924 8 126 0.0 0.0 0.00 0.00 0.00 88 1012.7
20260504044419 8 126 0.0 0.0 0.00 0.00 0.00 88 1012.7
20260504043912 8 126 0.0 0.0 0.00 0.00 0.00 88 1012.7
20260504043405 8 126 0.0 0.0 0.00 0.00 0.00 88 1012.7
20260504042859 8 126 0.0 0.0 0.00 0.00 0.00 88 1012.7
20260504042406 8 126 0.0 0.0 0.00 0.00 0.00 88 1012.8
20260504041848 8 126 0.0 0.0 0.00 0.00 0.00 88 1012.8
20260504041605 8 126 0.0 0.0 0.00 0.00 0.00 88 1012.8
20260504040842 8 126 0.0 0.0 0.00 0.00 0.00 88 1012.8
20260504040325 8 126 0.0 0.0 0.00 0.00 0.00 88 1012.9
20260504035819 8 123 0.0 0.0 0.00 0.00 0.00 88 1012.9
20260504035321 8 123 0.0 0.0 0.00 0.00 0.00 88 1012.9
20260504035304 8 123 0.0 0.0 0.00 0.00 0.00 88 1012.9
20260504034321 8 123 0.0 0.0 0.00 0.00 0.00 88 1012.9
20260504034301 8 123 0.0 0.0 0.00 0.00 0.00 88 1012.9
20260504033547 8 123 0.0 0.0 0.00 0.00 0.00 88 1013.0
20260504032812 8 123 0.0 0.0 0.00 0.00 0.00 88 1012.9
20260504032305 8 123 0.0 0.0 0.00 0.00 0.00 88 1012.9
20260504031800 8 122 0.0 0.0 0.00 0.00 0.00 88 1012.8
20260504031517 8 123 0.0 0.0 0.00 0.00 0.00 88 1013.1
20260504030748 8 123 0.0 0.0 0.00 0.00 0.00 88 1013.3
20260504030241 8 123 0.0 0.0 0.00 0.00 0.00 88 1013.3
20260504030004 8 123 0.0 0.0 0.00 0.00 0.00 88 1013.3
20260504025454 8 123 0.0 0.0 0.00 0.00 0.00 88 1013.3
20260504024724 8 123 0.0 0.0 0.00 0.00 0.00 88 1013.3
20260504024217 8 123 0.0 0.0 0.00 0.00 0.00 87 1013.2
20260504023931 8 123 0.0 0.0 0.00 0.00 0.00 87 1013.2
20260504023206 8 123 0.0 0.0 0.00 0.00 0.00 87 1013.1
20260504022700 8 123 0.0 0.0 0.00 0.00 0.00 87 1013.1
20260504022153 8 123 0.0 0.0 0.00 0.00 0.00 87 1013.1
20260504021649 8 123 0.0 0.0 0.00 0.00 0.00 88 1013.1
20260504021142 8 123 0.0 0.0 0.00 0.00 0.00 87 1013.2
20260504020636 8 123 0.0 0.0 0.00 0.00 0.00 87 1013.2
20260504020130 8 123 0.0 0.0 0.00 0.00 0.00 87 1013.2
20260504015848 8 122 0.0 0.0 0.00 0.00 0.00 87 1013.1
20260504015117 8 122 0.0 0.0 0.00 0.00 0.00 87 1013.1
20260504014611 8 122 0.0 0.0 0.00 0.00 0.00 87 1012.9
20260504014107 8 122 0.0 0.0 0.00 0.00 0.00 87 1012.9
20260504013600 8 122 0.0 0.0 0.00 0.00 0.00 87 1012.8
20260504013312 8 122 0.0 0.0 0.00 0.00 0.00 87 1012.8
20260504012547 8 122 0.0 0.0 0.00 0.00 0.00 87 1012.9
20260504012041 8 122 0.0 0.0 0.00 0.00 0.00 86 1013.0
20260504011537 8 122 0.0 0.0 0.00 0.00 0.00 87 1013.0
20260504011042 8 122 0.0 0.0 0.00 0.00 0.00 86 1013.0
20260504011009 8 122 0.0 0.0 0.00 0.00 0.00 86 1013.1
20260504010250 8 122 0.0 0.0 0.00 0.00 0.00 86 1013.0
20260504005521 8 122 0.0 0.0 0.00 0.00 0.00 86 1013.0
20260504005021 8 122 0.0 0.0 0.00 0.00 0.00 86 1012.9
20260504004522 9 122 0.0 0.0 0.00 0.00 0.00 86 1013.0
20260504004022 9 122 0.0 0.0 0.00 0.00 0.00 85 1013.0
20260504003522 9 122 0.0 0.0 0.00 0.00 0.00 86 1013.0
20260504003241 9 122 0.0 0.0 0.00 0.00 0.00 85 1013.0
20260504002741 9 122 0.0 0.0 0.00 0.00 0.00 85 1012.8
20260504002020 10 122 0.0 0.0 0.00 0.00 0.00 85 1012.7
20260504001519 10 122 0.0 0.0 0.00 0.00 0.00 85 1012.9
20260504001241 10 122 0.0 0.0 0.00 0.00 0.00 85 1012.8
20260504000517 10 122 0.0 0.0 0.00 0.00 0.00 85 1012.8
20260504000458 10 122 0.0 0.0 0.00 0.00 0.00 85 1012.9
20260503235744 10 122 0.0 0.0 0.00 0.00 0.00 85 1012.9
20260503235017 10 122 0.0 0.0 0.00 0.00 0.00 85 1012.7
20260503234513 10 122 0.0 0.0 0.00 0.00 0.00 85 1012.8
20260503234012 10 122 0.0 0.0 0.00 0.00 0.00 84 1012.7
20260503233510 10 122 0.0 0.0 0.00 0.00 0.00 84 1012.4
20260503233007 10 122 0.0 0.0 0.00 0.00 0.00 84 1012.5
20260503232501 10 121 0.0 0.0 0.00 0.00 0.00 84 1012.3
20260503231955 10 121 0.0 0.0 0.00 0.00 0.00 83 1013.0
20260503231450 10 120 0.0 0.0 0.00 0.00 0.00 84 1013.1
20260503231424 11 120 0.0 0.0 0.00 0.00 0.00 83 1013.2
20260503230443 11 120 0.0 0.0 0.00 0.00 0.00 83 1013.2
20260503230203 11 120 0.0 0.0 0.00 0.00 0.00 83 1013.2
20260503225441 11 120 0.0 0.0 0.00 0.00 0.00 83 1013.0
20260503224938 11 120 0.0 0.0 0.00 0.00 0.00 83 1012.9
20260503224437 11 121 0.0 0.0 0.00 0.00 0.00 82 1012.8
20260503223937 11 128 0.0 0.0 0.00 0.00 0.00 82 1012.7
20260503223436 11 128 0.0 0.0 0.00 0.00 0.00 82 1012.5
20260503222934 11 128 0.0 0.0 0.00 0.00 0.00 81 1012.5
20260503222654 11 128 0.0 0.0 0.00 0.00 0.00 81 1012.4
20260503221931 12 128 0.0 0.0 0.00 0.00 0.00 81 1012.5
20260503221429 12 128 0.0 0.0 0.00 0.00 0.00 81 1012.3
20260503221148 12 128 0.0 0.0 0.00 0.00 0.00 80 1012.3
20260503220429 12 149 0.0 0.0 0.00 0.00 0.00 80 1012.3
20260503215928 12 139 0.0 0.0 0.00 0.00 0.00 80 1012.4
20260503215440 12 151 0.0 0.0 0.00 0.00 0.00 79 1012.5
20260503214927 12 151 0.0 0.0 0.00 0.00 0.00 79 1012.5
20260503214427 13 151 0.0 0.0 0.00 0.00 0.00 78 1012.5
20260503213925 13 151 0.0 0.0 0.00 0.00 0.00 78 1012.4
20260503213647 13 151 0.0 0.0 0.00 0.00 0.00 77 1012.4
20260503212925 13 151 0.0 0.0 0.00 0.00 0.00 77 1012.4
20260503212646 13 151 0.0 0.0 0.00 0.00 0.00 77 1012.4
20260503211925 13 151 0.0 0.0 0.00 0.00 0.00 77 1012.4
20260503211423 13 120 0.0 0.0 0.00 0.00 0.00 76 1012.4
20260503211146 13 107 0.0 0.0 0.00 0.00 0.00 75 1012.4
20260503210419 14 107 0.0 0.0 0.00 0.00 0.00 75 1012.4
20260503210141 14 111 0.0 0.0 0.00 0.00 0.00 74 1012.3
20260503205419 14 110 0.0 0.0 0.00 0.00 0.00 75 1012.3
20260503204919 14 136 0.0 0.0 0.00 0.00 0.00 74 1012.4
20260503204419 15 107 0.0 0.0 0.00 0.00 0.00 74 1012.4
20260503203921 15 159 0.0 0.0 0.00 0.00 0.00 73 1012.4
20260503203419 15 159 0.0 0.0 0.00 0.00 0.00 73 1012.4
20260503202919 15 149 0.0 0.0 0.00 0.00 0.00 73 1012.4
20260503202419 15 143 0.0 0.0 0.00 0.00 0.00 73 1012.5
20260503202358 15 151 0.0 0.0 0.00 0.00 0.00 73 1012.5
20260503201416 15 134 0.0 0.0 0.00 0.00 0.00 73 1012.7
20260503200913 15 147 0.0 0.0 0.00 0.00 0.00 73 1012.7
20260503200415 15 159 0.0 0.0 0.00 0.00 0.00 73 1012.8
20260503195913 15 160 0.0 0.0 0.00 0.00 0.00 73 1012.7
20260503195411 15 120 0.0 0.0 0.00 0.00 0.00 73 1012.7
20260503194911 15 144 0.0 0.0 0.00 0.00 0.00 72 1012.7
20260503194411 15 131 0.0 0.0 0.00 0.00 0.00 72 1012.5
20260503193911 15 174 0.0 0.0 0.00 0.00 0.00 71 1012.5
20260503193409 15 132 0.0 0.0 0.00 0.00 0.00 70 1012.5
20260503192909 15 179 0.0 0.0 0.00 0.00 0.00 70 1012.5
20260503192407 15 133 0.0 0.0 0.00 0.00 0.00 70 1012.5
20260503191907 16 199 0.0 0.0 0.00 0.00 0.00 70 1012.5
20260503191835 16 222 0.0 0.0 0.00 0.00 0.00 69 1012.7
20260503191723 16 209 0.0 0.0 0.00 0.00 0.00 69 1012.4
20260503190622 16 228 0.0 0.0 0.00 0.00 0.00 69 1012.5
20260503185854 16 161 0.0 0.0 0.00 0.00 0.00 70 1012.4
20260503185349 16 181 0.0 0.0 0.00 0.00 0.00 70 1012.3
20260503185108 16 171 0.0 0.0 0.00 0.00 0.00 71 1012.3
20260503184336 16 160 0.0 0.0 0.00 0.00 0.00 71 1012.4
20260503183830 16 239 0.0 0.0 0.00 0.00 0.00 72 1012.3
20260503183324 16 164 0.0 0.0 0.00 0.00 0.00 73 1012.3
20260503183040 16 149 0.0 0.0 0.00 0.00 0.00 73 1012.3
20260503182749 16 149 0.0 0.0 0.00 0.00 0.00 73 1012.2
20260503182031 16 159 0.0 0.0 0.00 0.00 0.00 73 1012.1
20260503181300 16 170 0.0 0.0 0.00 0.00 0.00 73 1012.1
20260503180756 16 163 0.0 0.0 0.00 0.00 0.00 73 1012.0
20260503180248 16 134 0.0 0.0 0.00 0.00 0.00 73 1012.0
20260503175743 16 180 0.0 0.0 0.00 0.00 0.00 74 1012.1
20260503175236 16 160 0.0 0.0 0.00 0.00 0.00 73 1012.0
20260503174731 16 103 0.0 0.0 0.00 0.00 0.00 74 1012.1
20260503174447 16 132 0.0 0.0 0.00 0.00 0.00 73 1012.1
20260503173721 16 141 0.0 0.0 0.00 0.00 0.00 73 1012.1
20260503173213 16 158 0.0 0.0 0.00 0.00 0.00 72 1012.2
20260503172707 16 172 0.0 0.0 0.00 0.00 0.00 72 1012.2
20260503172200 16 120 0.0 0.0 0.00 0.00 0.00 71 1012.1
20260503171657 16 178 0.0 0.0 0.00 0.00 0.00 70 1012.2
20260503171148 16 177 0.0 0.0 0.00 0.00 0.00 69 1012.2
20260503170858 17 199 0.0 0.0 0.00 0.00 0.00 67 1012.1
20260503170138 17 165 0.0 0.0 0.00 0.00 0.00 66 1012.1
20260503160117 19 164 0.0 0.0 0.00 0.00 0.00 50 1011.6
20260503150553 18 217 0.0 0.0 0.00 0.00 0.00 55 1011.9
20260503140156 21 176 0.0 0.0 0.00 0.00 0.00 40 1011.4
20260503130921 21 243 0.0 0.0 0.00 0.00 0.00 35 1011.8
20260503130421 21 234 0.0 0.0 0.00 0.00 0.00 36 1011.6
20260503110403 22 196 0.0 0.0 0.00 0.00 0.00 36 1011.8
20260503090350 20 162 0.0 0.0 0.00 0.00 0.00 40 1012.4
20260503090117 20 103 0.0 0.0 0.00 0.00 0.00 43 1012.4
20260503080846 18 112 0.0 0.0 0.00 0.00 0.00 49 1012.7
20260503080346 18 153 0.0 0.0 0.00 0.00 0.00 51 1012.7
20260503072843 15 135 0.0 0.0 0.00 0.00 0.00 82 1013.1
20260503072344 15 135 0.0 0.0 0.00 0.00 0.00 83 1013.1
20260503071843 14 135 0.0 0.0 0.00 0.00 0.00 84 1013.0
20260503071605 13 135 0.0 0.0 0.00 0.00 0.00 85 1013.0
20260503070838 13 135 0.0 0.0 0.00 0.00 0.00 86 1012.9